N6EQ Weather Reports


time (UTC)temp
C
wind
direction
speed
KPH
gust
KPH
rain 1hr
cm
rain 24hr
cm
rain mn
cm
humidity
%
barometer
mb
20260905030008 34 134 0.0 11.3 0.00 0.00 0.00 9 947.6
20260905024506 34 198 1.6 12.9 0.00 0.00 0.00 8 947.5
20260905023006 35 164 4.8 16.1 0.00 0.00 0.00 8 947.4
20260905021505 35 161 0.0 16.1 0.00 0.00 0.00 8 947.4
20260905020006 35 188 6.4 20.9 0.00 0.00 0.00 8 947.3
20260905014503 36 136 9.7 27.4 0.00 0.00 0.00 9 947.2
20260905013002 36 147 9.7 24.1 0.00 0.00 0.00 8 947.3
20260905011501 36 149 8.0 33.8 0.00 0.00 0.00 8 947.3
20260905010001 37 131 1.6 24.1 0.00 0.00 0.00 8 947.4
20260905004600 37 166 17.7 30.6 0.00 0.00 0.00 8 947.3
20260905003100 37 229 11.3 24.1 0.00 0.00 0.00 8 947.3
20260905001606 37 188 3.2 35.4 0.00 0.00 0.00 11 947.4
20260905000112 37 151 8.0 35.4 0.00 0.00 0.00 11 947.4
20260904234601 37 160 11.3 29.0 0.00 0.00 0.00 13 947.4
20260904233118 37 215 12.9 29.0 0.00 0.00 0.00 15 947.5
20260904231605 37 198 6.4 30.6 0.00 0.00 0.00 15 947.7
20260904230058 37 214 9.7 30.6 0.00 0.00 0.00 14 947.9
20260904224558 37 205 17.7 29.0 0.00 0.00 0.00 15 948.0
20260904223119 36 213 16.1 37.0 0.00 0.00 0.00 13 948.1
20260904221555 37 196 27.4 43.5 0.00 0.00 0.00 11 948.2
20260904220052 37 176 14.5 40.2 0.00 0.00 0.00 8 948.3
20260904214551 36 204 12.9 41.8 0.00 0.00 0.00 13 948.6
20260904213049 36 173 19.3 40.2 0.00 0.00 0.00 14 948.8
20260904211549 36 221 19.3 35.4 0.00 0.00 0.00 17 948.8
20260904210058 36 22.5 41.8 0.00 0.00 0.00 18 948.9
20260904204545 36 19.3 35.4 0.00 0.00 0.00 21 949.0
20260904203047 35 153 24.1 38.6 0.00 0.00 0.00 22 949.1
20260904201543 35 32.2 46.7 0.00 0.00 0.00 21 949.2
20260904200041 35 17.7 37.0 0.00 0.00 0.00 25 949.4
20260904194540 35 134 25.7 38.6 0.00 0.00 0.00 25 949.6
20260904193040 34 210 27.4 43.5 0.00 0.00 0.00 26 949.7
20260904191542 34 179 22.5 45.1 0.00 0.00 0.00 25 950.0
20260904190036 33 134 19.3 38.6 0.00 0.00 0.00 28 950.1
20260904184534 33 226 24.1 35.4 0.00 0.00 0.00 26 950.2
20260904183031 33 198 14.5 37.0 0.00 0.00 0.00 27 950.3
20260904181533 33 188 22.5 0.0 0.00 0.00 0.00 25 950.3
20260904180025 33 207 22.5 35.4 0.00 0.00 0.00 28 950.5
20260904174522 33 200 25.7 40.2 0.00 0.00 0.00 27 950.5
20260904173042 32 189 24.1 45.1 0.00 0.00 0.00 31 950.6
20260904171517 31 212 0.0 16.1 0.00 0.00 0.00 30 950.5
20260904170013 31 223 0.0 14.5 0.00 0.00 0.00 27 950.4
20260904164510 30 240 0.0 14.5 0.00 0.00 0.00 25 950.4
20260904163008 30 238 3.2 14.5 0.00 0.00 0.00 23 950.3
20260904161511 30 229 4.8 16.1 0.00 0.00 0.00 23 950.2
20260904160005 29 4.8 14.5 0.00 0.00 0.00 22 950.1
20260904154502 28 226 0.0 3.2 0.00 0.00 0.00 19 950.2
20260904153102 28 240 0.0 0.0 0.00 0.00 0.00 17 950.0
20260904151604 28 238 0.0 0.0 0.00 0.00 0.00 16 950.0
20260904150058 27 221 0.0 0.0 0.00 0.00 0.00 16 949.8
20260904144609 27 236 0.0 0.0 0.00 0.00 0.00 16 949.7
20260904143100 27 151 0.0 0.0 0.00 0.00 0.00 16 949.5
20260904141556 27 162 0.0 0.0 0.00 0.00 0.00 16 949.3
20260904140050 26 111 0.0 0.0 0.00 0.00 0.00 15 949.1
20260904134551 26 108 0.0 0.0 0.00 0.00 0.00 16 948.9
20260904133056 26 105 0.0 0.0 0.00 0.00 0.00 16 948.7
20260904131545 26 113 0.0 0.0 0.00 0.00 0.00 15 948.5
20260904130041 26 116 0.0 0.0 0.00 0.00 0.00 15 948.3
20260904124539 26 131 0.0 0.0 0.00 0.00 0.00 15 948.3
20260904123037 26 117 0.0 0.0 0.00 0.00 0.00 15 948.1
20260904121537 26 131 0.0 0.0 0.00 0.00 0.00 15 948.0
20260904120037 26 134 0.0 0.0 0.00 0.00 0.00 15 948.0
20260904114535 27 113 0.0 0.0 0.00 0.00 0.00 14 948.0
20260904113034 27 105 0.0 0.0 0.00 0.00 0.00 14 947.9
20260904111533 27 139 0.0 0.0 0.00 0.00 0.00 14 947.9
20260904110031 27 153 0.0 0.0 0.00 0.00 0.00 14 947.7
20260904104531 27 119 0.0 0.0 0.00 0.00 0.00 14 947.6
20260904103029 27 138 0.0 0.0 0.00 0.00 0.00 15 947.6
20260904101528 26 108 0.0 0.0 0.00 0.00 0.00 15 947.5
20260904100028 26 127 0.0 0.0 0.00 0.00 0.00 15 947.4
20260904094527 26 123 0.0 0.0 0.00 0.00 0.00 15 947.4
20260904093025 26 188 0.0 0.0 0.00 0.00 0.00 16 947.3
20260904091542 26 198 0.0 0.0 0.00 0.00 0.00 15 947.2
20260904090019 27 208 0.0 0.0 0.00 0.00 0.00 15 947.2
20260904084517 27 150 0.0 0.0 0.00 0.00 0.00 14 947.2
20260904083026 28 174 0.0 0.0 0.00 0.00 0.00 13 947.2
20260904081515 29 285 0.0 4.8 0.00 0.00 0.00 13 947.2
20260904080013 27 149 0.0 0.0 0.00 0.00 0.00 14 947.3
20260904074510 28 152 0.0 0.0 0.00 0.00 0.00 13 947.3
20260904073006 29 285 0.0 0.0 0.00 0.00 0.00 13 947.3
20260904071503 30 262 0.0 3.2 0.00 0.00 0.00 12 947.3
20260904070113 30 104 0.0 0.0 0.00 0.00 0.00 11 947.3
20260904064608 31 122 1.6 11.3 0.00 0.00 0.00 11 947.1
20260904063100 32 135 8.0 19.3 0.00 0.00 0.00 10 947.1
20260904061557 31 148 0.0 11.3 0.00 0.00 0.00 9 947.0
20260904060057 32 155 0.0 16.1 0.00 0.00 0.00 9 946.9
20260904054557 32 0.0 14.5 0.00 0.00 0.00 10 946.9
20260904053103 32 4.8 17.7 0.00 0.00 0.00 10 946.9
20260904051554 32 143 4.8 14.5 0.00 0.00 0.00 10 947.0
20260904050056 32 148 6.4 17.7 0.00 0.00 0.00 11 947.0
20260904044607 32 134 3.2 11.3 0.00 0.00 0.00 12 947.0
20260904043057 32 151 1.6 14.5 0.00 0.00 0.00 12 947.0
20260904041553 33 137 1.6 14.5 0.00 0.00 0.00 10 946.8
20260904040052 33 137 1.6 9.7 0.00 0.00 0.00 10 946.7
20260904034551 33 153 4.8 16.1 0.00 0.00 0.00 9 946.5
20260904033057 33 136 0.0 9.7 0.00 0.00 0.00 9 946.4
20260904031602 33 133 4.8 11.3 0.00 0.00 0.00 9 946.2